Time,TemperatureF,DewpointF,PressureIn,WindDirection,WindDirectionDegrees,WindSpeedMPH,WindSpeedGustMPH,Humidity,HourlyPrecipIn,Conditions,Clouds,dailyrainin,SoftwareType,DateUTC
2013-09-09 00:14:00,69.0,66.0,29.89,SE,133,0.0,0.0,89,0.00,,,0.11,,2013-09-09 04:14:00,
2013-09-09 00:24:00,69.0,66.0,29.89,SE,133,0.0,0.0,90,0.00,,,0.11,,2013-09-09 04:24:00,
2013-09-09 00:43:00,68.0,65.0,29.89,SE,133,0.0,0.0,90,0.00,,,0.11,,2013-09-09 04:43:00,
2013-09-09 00:54:00,68.0,65.0,29.90,SE,133,0.0,0.0,90,0.00,,,0.11,,2013-09-09 04:54:00,
2013-09-09 01:13:00,68.0,65.0,29.89,SE,133,0.0,0.0,90,0.00,,,0.11,,2013-09-09 05:13:00,
2013-09-09 01:23:00,68.0,65.0,29.89,SE,133,0.0,0.0,90,0.00,,,0.11,,2013-09-09 05:23:00,
2013-09-09 01:43:00,67.0,64.0,29.89,SE,133,0.0,0.0,91,0.00,,,0.11,,2013-09-09 05:43:00,
2013-09-09 01:53:00,67.0,64.0,29.90,SE,133,0.0,0.0,91,0.00,,,0.11,,2013-09-09 05:53:00,
2013-09-09 02:12:00,67.0,64.0,29.89,SE,133,0.0,0.0,91,0.00,,,0.11,,2013-09-09 06:12:00,
2013-09-09 02:21:00,67.0,64.0,29.89,SE,133,0.0,0.0,91,0.00,,,0.11,,2013-09-09 06:21:00,
2013-09-09 02:42:00,67.0,65.0,29.89,SE,133,0.0,0.0,92,0.00,,,0.11,,2013-09-09 06:42:00,
2013-09-09 02:52:00,67.0,65.0,29.89,SE,133,0.0,0.0,92,0.00,,,0.11,,2013-09-09 06:52:00,
2013-09-09 03:11:00,66.0,64.0,29.89,SE,133,0.0,0.0,92,0.00,,,0.11,,2013-09-09 07:11:00,
2013-09-09 03:22:00,66.0,64.0,29.89,SE,133,0.0,0.0,92,0.00,,,0.11,,2013-09-09 07:22:00,
2013-09-09 03:43:00,67.0,65.0,29.89,SE,133,0.0,0.0,92,0.00,,,0.11,,2013-09-09 07:43:00,
2013-09-09 03:52:00,67.0,65.0,29.88,SSW,203,0.0,2.0,93,0.00,,,0.11,,2013-09-09 07:52:00,
2013-09-09 04:11:00,69.0,67.0,29.88,SSE,166,0.0,3.0,94,0.00,,,0.11,,2013-09-09 08:11:00,
2013-09-09 04:22:00,69.0,67.0,29.88,SSE,159,0.0,2.0,93,0.00,,,0.11,,2013-09-09 08:22:00,
2013-09-09 04:52:00,70.0,68.0,29.88,SSE,159,0.0,1.0,93,0.00,,,0.11,,2013-09-09 08:52:00,
2013-09-09 05:12:00,70.0,68.0,29.88,SSE,159,0.0,1.0,92,0.00,,,0.11,,2013-09-09 09:12:00,
2013-09-09 05:22:00,70.0,68.0,29.88,South,186,1.0,3.0,93,0.00,,,0.11,,2013-09-09 09:22:00,
2013-09-09 05:53:00,70.0,68.0,29.88,South,171,0.0,2.0,92,0.00,,,0.08,,2013-09-09 09:53:00,
2013-09-09 06:12:00,70.0,68.0,29.87,South,180,0.0,2.0,93,0.00,,,0.08,,2013-09-09 10:12:00,
2013-09-09 06:23:00,69.0,67.0,29.87,South,180,0.0,2.0,92,0.00,,,0.08,,2013-09-09 10:23:00,
2013-09-09 06:42:00,69.0,67.0,29.87,South,180,0.0,2.0,93,0.00,,,0.00,,2013-09-09 10:42:00,
2013-09-09 06:52:00,70.0,68.0,29.87,South,186,0.0,3.0,93,0.00,,,0.00,,2013-09-09 10:52:00,
2013-09-09 07:12:00,70.0,68.0,29.86,South,175,2.0,5.0,92,0.00,,,0.00,,2013-09-09 11:12:00,
2013-09-09 07:22:00,70.0,68.0,29.86,SE,145,1.0,5.0,92,0.00,,,0.00,,2013-09-09 11:22:00,
2013-09-09 07:42:00,70.0,67.0,29.86,South,175,2.0,5.0,91,0.00,,,0.00,,2013-09-09 11:42:00,
2013-09-09 07:52:00,71.0,68.0,29.87,SSW,192,1.0,6.0,91,0.00,,,0.00,,2013-09-09 11:52:00,
2013-09-09 08:12:00,71.0,68.0,29.87,South,182,3.0,6.0,91,0.00,,,0.00,,2013-09-09 12:12:00,
2013-09-09 08:22:00,71.0,68.0,29.87,SW,214,4.0,9.0,90,0.00,,,0.00,,2013-09-09 12:22:00,
2013-09-09 08:42:00,71.0,68.0,29.87,SSW,205,3.0,6.0,90,0.00,,,0.00,,2013-09-09 12:42:00,
2013-09-09 08:52:00,71.0,68.0,29.87,SSW,202,3.0,5.0,90,0.00,,,0.00,,2013-09-09 12:52:00,
2013-09-09 09:11:00,72.0,69.0,29.87,SSW,202,3.0,6.0,90,0.00,,,0.00,,2013-09-09 13:11:00,
2013-09-09 09:21:00,73.0,70.0,29.87,South,187,3.0,8.0,89,0.00,,,0.00,,2013-09-09 13:21:00,
2013-09-09 09:42:00,73.0,69.0,29.88,SSW,199,3.0,9.0,88,0.00,,,0.00,,2013-09-09 13:42:00,
2013-09-09 09:52:00,74.0,70.0,29.88,SSW,204,4.0,12.0,87,0.00,,,0.00,,2013-09-09 13:52:00,
2013-09-09 10:12:00,75.0,71.0,29.87,South,181,4.0,9.0,86,0.00,,,0.00,,2013-09-09 14:12:00,
2013-09-09 10:22:00,76.0,71.0,29.88,South,186,3.0,9.0,84,0.00,,,0.00,,2013-09-09 14:22:00,
2013-09-09 10:42:00,77.0,71.0,29.88,WSW,245,4.0,9.0,83,0.00,,,0.00,,2013-09-09 14:42:00,
2013-09-09 10:52:00,78.0,72.0,29.88,SSW,206,3.0,10.0,81,0.00,,,0.00,,2013-09-09 14:52:00,
2013-09-09 11:11:00,78.0,71.0,29.87,SW,219,5.0,10.0,80,0.00,,,0.00,,2013-09-09 15:11:00,
2013-09-09 11:22:00,80.0,72.0,29.87,SSW,198,5.0,10.0,78,0.00,,,0.00,,2013-09-09 15:22:00,
2013-09-09 11:43:00,80.0,72.0,29.87,SW,233,4.0,10.0,76,0.00,,,0.00,,2013-09-09 15:43:00,
2013-09-09 11:53:00,82.0,73.0,29.88,West,266,3.0,10.0,75,0.00,,,0.00,,2013-09-09 15:53:00,
2013-09-09 12:13:00,82.0,72.0,29.87,SE,130,5.0,11.0,73,0.00,,,0.00,,2013-09-09 16:13:00,
2013-09-09 12:24:00,84.0,73.0,29.86,WSW,238,6.0,11.0,70,0.00,,,0.00,,2013-09-09 16:24:00,
2013-09-09 12:43:00,84.0,73.0,29.86,South,186,5.0,13.0,69,0.00,,,0.00,,2013-09-09 16:43:00,
2013-09-09 12:54:00,85.0,73.0,29.86,West,264,4.0,11.0,67,0.00,,,0.00,,2013-09-09 16:54:00,
2013-09-09 13:12:00,86.0,72.0,29.86,SSW,197,6.0,12.0,64,0.00,,,0.00,,2013-09-09 17:12:00,
2013-09-09 13:23:00,87.0,73.0,29.86,SW,228,6.0,12.0,63,0.00,,,0.00,,2013-09-09 17:23:00,
2013-09-09 13:52:00,88.0,74.0,29.85,WSW,240,5.0,11.0,63,0.00,,,0.00,,2013-09-09 17:52:00,
2013-09-09 14:13:00,89.0,73.0,29.84,South,176,4.0,9.0,60,0.00,,,0.00,,2013-09-09 18:13:00,
2013-09-09 14:22:00,89.0,73.0,29.84,SSW,213,3.0,10.0,59,0.00,,,0.00,,2013-09-09 18:22:00,
2013-09-09 14:52:00,91.0,73.0,29.84,WSW,247,5.0,12.0,56,0.00,,,0.00,,2013-09-09 18:52:00,
2013-09-09 15:12:00,91.0,73.0,29.84,SW,229,3.0,8.0,56,0.00,,,0.00,,2013-09-09 19:12:00,
2013-09-09 15:22:00,92.0,73.0,29.83,West,266,4.0,9.0,55,0.00,,,0.00,,2013-09-09 19:22:00,
2013-09-09 15:43:00,93.0,73.0,29.83,SW,217,3.0,8.0,53,0.00,,,0.00,,2013-09-09 19:43:00,
2013-09-09 15:52:00,93.0,73.0,29.83,SSE,148,4.0,8.0,52,0.00,,,0.00,,2013-09-09 19:52:00,
2013-09-09 16:12:00,94.0,73.0,29.82,West,269,4.0,9.0,51,0.00,,,0.00,,2013-09-09 20:12:00,
2013-09-09 16:22:00,94.0,72.0,29.82,South,188,5.0,8.0,50,0.00,,,0.00,,2013-09-09 20:22:00,
2013-09-09 16:42:00,94.0,72.0,29.82,WSW,241,4.0,10.0,50,0.00,,,0.00,,2013-09-09 20:42:00,
2013-09-09 16:53:00,94.0,73.0,29.81,WSW,240,5.0,11.0,51,0.00,,,0.00,,2013-09-09 20:53:00,
2013-09-09 17:12:00,94.0,73.0,29.82,SW,215,4.0,13.0,51,0.00,,,0.00,,2013-09-09 21:12:00,
2013-09-09 17:22:00,94.0,73.0,29.81,SSW,213,5.0,11.0,51,0.00,,,0.00,,2013-09-09 21:22:00,
2013-09-09 17:44:00,94.0,73.0,29.82,SSE,162,5.0,11.0,51,0.00,,,0.00,,2013-09-09 21:44:00,
2013-09-09 17:54:00,93.0,73.0,29.82,WSW,239,6.0,12.0,52,0.00,,,0.00,,2013-09-09 21:54:00,
2013-09-09 18:13:00,93.0,73.0,29.81,SSW,200,5.0,10.0,52,0.00,,,0.00,,2013-09-09 22:13:00,
2013-09-09 18:24:00,93.0,73.0,29.81,SSW,201,5.0,15.0,52,0.00,,,0.00,,2013-09-09 22:24:00,
2013-09-09 18:43:00,93.0,73.0,29.81,SW,221,5.0,11.0,52,0.00,,,0.00,,2013-09-09 22:43:00,
2013-09-09 18:54:00,92.0,72.0,29.82,WSW,241,5.0,12.0,52,0.00,,,0.00,,2013-09-09 22:54:00,
2013-09-09 19:12:00,92.0,72.0,29.82,WSW,245,4.0,12.0,52,0.00,,,0.00,,2013-09-09 23:12:00,
2013-09-09 19:22:00,91.0,71.0,29.82,WSW,255,5.0,10.0,52,0.00,,,0.00,,2013-09-09 23:22:00,
2013-09-09 19:42:00,90.0,72.0,29.82,SW,236,3.0,9.0,55,0.00,,,0.00,,2013-09-09 23:42:00,
2013-09-09 19:52:00,89.0,72.0,29.83,South,182,2.0,9.0,58,0.00,,,0.00,,2013-09-09 23:52:00,
2013-09-09 20:12:00,88.0,73.0,29.83,WSW,248,4.0,7.0,61,0.00,,,0.00,,2013-09-10 00:12:00,
2013-09-09 20:22:00,86.0,72.0,29.83,SSW,201,3.0,8.0,63,0.00,,,0.00,,2013-09-10 00:22:00,
2013-09-09 20:42:00,85.0,72.0,29.83,SW,231,2.0,6.0,65,0.00,,,0.00,,2013-09-10 00:42:00,
2013-09-09 20:52:00,84.0,72.0,29.84,SW,219,3.0,8.0,67,0.00,,,0.00,,2013-09-10 00:52:00,
2013-09-09 21:11:00,83.0,72.0,29.84,SSW,212,2.0,9.0,70,0.00,,,0.00,,2013-09-10 01:11:00,
2013-09-09 21:21:00,82.0,72.0,29.84,WSW,242,3.0,7.0,72,0.00,,,0.00,,2013-09-10 01:21:00,
2013-09-09 21:42:00,82.0,72.0,29.85,SW,234,3.0,7.0,73,0.00,,,0.00,,2013-09-10 01:42:00,
2013-09-09 21:52:00,81.0,72.0,29.85,WSW,240,3.0,8.0,74,0.00,,,0.00,,2013-09-10 01:52:00,
2013-09-09 22:12:00,81.0,72.0,29.85,SSW,197,2.0,8.0,75,0.00,,,0.00,,2013-09-10 02:12:00,
2013-09-09 22:22:00,80.0,72.0,29.85,South,190,3.0,8.0,76,0.00,,,0.00,,2013-09-10 02:22:00,
2013-09-09 22:42:00,80.0,72.0,29.86,SW,219,3.0,7.0,77,0.00,,,0.00,,2013-09-10 02:42:00,
2013-09-09 22:52:00,80.0,72.0,29.87,SSW,213,2.0,5.0,77,0.00,,,0.00,,2013-09-10 02:52:00,
2013-09-09 23:12:00,80.0,72.0,29.87,SSW,197,3.0,8.0,77,0.00,,,0.00,,2013-09-10 03:12:00,
2013-09-09 23:22:00,81.0,73.0,29.87,SSW,204,3.0,8.0,76,0.00,,,0.00,,2013-09-10 03:22:00,
2013-09-09 23:54:00,80.0,72.0,29.87,WSW,245,4.0,10.0,76,0.00,,,0.00,,2013-09-10 03:54:00,